EW3148 Weather Reports


time (UTC)temp
F
wind
direction
speed
knots
gust
knots
rain 1hr
in
rain 24hr
in
rain mn
in
humidity
%
barometer
mb
20260509162855 82 216 2.6 7.8 0.00 0.03 0.03 77 1008.9
20260509160749 80 273 1.7 7.0 0.00 0.03 0.03 83 1008.7
20260509155721 79 186 1.7 7.0 0.00 0.03 0.03 85 1008.9
20260509154703 78 242 0.9 5.2 0.00 0.03 0.03 90 1008.9
20260509153644 77 250 0.9 5.2 0.00 0.03 0.03 93 1009.0
20260509152634 75 242 2.6 7.8 0.00 0.03 0.03 94 1009.2
20260509151620 74 191 3.5 7.8 0.00 0.03 0.03 95 1009.2
20260509145453 73 159 2.6 7.8 0.00 0.03 0.03 95 1009.0
20260509144506 73 203 2.6 7.8 0.00 0.03 0.03 96 1008.7
20260509143510 73 195 0.9 7.0 0.00 0.03 0.03 96 1008.7
20260509142535 73 159 1.7 7.0 0.00 0.03 0.03 96 1008.4
20260509141535 73 189 2.6 7.8 0.00 0.03 0.03 96 1008.3
20260509140530 73 168 2.6 7.8 0.00 0.03 0.03 96 1008.2
20260509135509 73 168 0.0 2.6 0.00 0.03 0.03 96 1008.5
20260509134452 73 5 0.0 0.0 0.00 0.03 0.03 96 1008.6
20260509133504 73 5 0.0 1.7 0.00 0.03 0.03 96 1008.9
20260509132436 73 340 0.9 2.6 0.00 0.03 0.03 96 1009.0
20260509131459 73 19 0.0 4.3 0.00 0.03 0.03 96 1009.0
20260509130506 73 346 0.9 4.3 0.00 0.03 0.03 96 1008.6
20260509125444 73 308 0.9 3.5 0.00 0.03 0.03 96 1008.3
20260509124440 72 5 0.0 3.5 0.00 0.03 0.03 96 1008.4
20260509123413 72 5 0.0 0.9 0.00 0.03 0.03 96 1008.4
20260509121243 72 346 0.0 0.0 0.00 0.03 0.03 95 1008.5
20260509120243 72 346 0.0 0.9 0.00 0.03 0.03 95 1008.7
20260509115308 72 355 0.0 0.9 0.00 0.03 0.03 95 1008.6
20260509114317 72 319 0.0 3.5 0.00 0.03 0.03 95 1008.7
20260509113257 72 5 0.9 2.6 0.00 0.02 0.02 95 1009.3
20260509112251 72 41 0.0 6.1 0.00 0.02 0.02 95 1009.4
20260509111235 72 46 0.9 6.1 0.00 0.02 0.02 95 1009.4
20260509110205 72 43 0.9 4.3 0.00 0.02 0.02 95 1009.3
20260509105145 72 71 0.9 4.3 0.00 0.01 0.01 95 1009.5
20260509104135 73 5 0.0 2.6 0.00 0.01 0.01 95 1009.6
20260509101939 72 41 0.0 1.7 0.00 0.01 0.01 95 1009.0
20260509101002 72 96 0.0 0.9 0.00 0.01 0.01 95 1008.7
20260509095942 72 96 0.0 0.9 0.00 0.01 0.01 95 1008.5
20260509094957 72 96 0.0 1.7 0.00 0.01 0.01 95 1008.2
20260509094014 72 83 0.0 0.9 0.00 0.01 0.01 95 1008.1
20260509093014 72 83 0.0 0.0 0.00 0.01 0.01 94 1008.3
20260509092037 72 100 0.0 1.7 0.00 0.01 0.01 94 1008.0
20260509085920 72 80 0.0 0.0 0.00 0.00 0.00 94 1008.0
20260509084907 72 80 0.0 0.9 0.00 0.00 0.00 94 1008.2
20260509083850 73 49 0.0 1.7 0.00 0.00 0.00 94 1008.3
20260509082847 73 77 0.0 0.9 0.00 0.00 0.00 94 1008.4
20260509081840 73 76 0.0 0.0 0.00 0.00 0.00 94 1008.4
20260509075736 73 78 0.0 0.0 0.00 0.00 0.00 93 1008.3
20260509072431 73 125 0.0 3.5 0.00 0.00 0.00 93 1008.2
20260509071417 73 172 0.0 1.7 0.00 0.00 0.00 93 1008.3
20260509070442 73 180 0.0 2.6 0.00 0.00 0.00 93 1008.5
20260509065506 73 169 0.0 2.6 0.00 0.00 0.00 93 1008.6
20260509064440 73 150 1.7 6.1 0.00 0.00 0.00 93 1008.5
20260509063422 73 175 0.9 8.7 0.00 0.00 0.00 92 1008.2
20260509062445 73 182 1.7 8.7 0.00 0.00 0.00 92 1008.0
20260509061414 73 179 2.6 7.8 0.00 0.00 0.00 92 1008.1
20260509060351 73 186 1.7 11.3 0.00 0.00 0.00 92 1008.1
20260509055411 73 195 2.6 11.3 0.00 0.00 0.00 91 1008.1
20260509053317 73 217 3.5 9.6 0.00 0.00 0.00 92 1008.0
20260509052319 73 184 2.6 8.7 0.00 0.00 0.00 92 1008.2
20260509051311 73 159 1.7 7.0 0.00 0.00 0.00 92 1008.0
20260509050316 72 166 1.7 6.1 0.00 0.00 0.00 92 1007.8
20260509045307 72 140 0.9 4.3 0.00 0.00 0.00 91 1007.8
20260509044325 72 180 1.7 3.5 0.00 0.00 0.00 91 1007.7
20260509043328 73 174 1.7 5.2 0.00 0.00 0.00 91 1007.7
20260509042306 73 164 1.7 5.2 0.00 0.00 0.00 90 1007.8
20260509041306 73 132 2.6 6.1 0.00 0.00 0.00 90 1007.9
20260509040323 73 173 2.6 7.8 0.00 0.00 0.00 89 1008.1
20260509034131 74 179 2.6 5.2 0.00 0.00 0.00 88 1008.2
20260509033111 74 149 1.7 4.3 0.00 0.00 0.00 88 1008.2
20260509025740 74 170 2.6 6.1 0.00 0.00 0.00 87 1007.6
20260509024727 74 165 1.7 5.2 0.00 0.00 0.00 87 1007.7
20260509023731 74 157 0.9 3.5 0.00 0.00 0.00 86 1007.6
20260509022731 74 143 1.7 3.5 0.00 0.00 0.00 87 1007.7
20260509021722 74 181 0.9 5.2 0.00 0.00 0.00 86 1007.5
20260509020713 74 163 1.7 5.2 0.00 0.00 0.00 86 1007.3
20260509015723 74 112 1.7 6.1 0.00 0.00 0.00 85 1007.0
20260509014719 75 140 2.6 7.0 0.00 0.00 0.00 84 1006.8
20260509012620 76 98 1.7 6.1 0.00 0.00 0.00 83 1006.9
20260509011608 76 134 1.7 3.5 0.00 0.00 0.00 82 1006.8
20260509010622 76 149 0.9 7.0 0.00 0.00 0.00 82 1006.9
20260509005634 77 119 0.9 7.0 0.00 0.00 0.00 81 1006.9
20260509003515 77 171 1.7 5.2 0.00 0.00 0.00 79 1006.8
20260509002446 77 177 0.9 5.2 0.00 0.00 0.00 79 1006.8
20260509001428 78 118 1.7 5.2 0.00 0.00 0.00 78 1006.9
20260508234145 78 144 2.6 7.0 0.00 0.00 0.00 77 1006.9
20260508233145 78 81 2.6 6.1 0.00 0.00 0.00 76 1006.8
20260508231033 79 210 2.6 7.0 0.00 0.00 0.00 75 1006.9
20260508230014 79 172 3.5 8.7 0.00 0.00 0.00 76 1006.9
20260508224952 79 196 2.6 8.7 0.00 0.00 0.00 74 1007.0
20260508223945 79 172 3.5 8.7 0.00 0.00 0.00 74 1006.9
20260508222940 79 188 2.6 7.8 0.00 0.00 0.00 74 1006.9
20260508221906 79 167 3.5 9.6 0.00 0.00 0.00 74 1006.9
20260508220853 80 163 2.6 8.7 0.00 0.00 0.00 73 1007.1
20260508214729 81 174 3.5 10.4 0.00 0.00 0.00 72 1007.1
20260508213703 81 189 2.6 7.8 0.00 0.00 0.00 70 1007.2
20260508212711 82 145 2.6 8.7 0.00 0.00 0.00 71 1007.2
20260508210600 80 92 2.6 8.7 0.00 0.00 0.00 73 1007.6
20260508205528 79 126 2.6 7.0 0.00 0.00 0.00 73 1007.9
20260508204545 79 160 1.7 6.1 0.00 0.00 0.00 73 1007.9
20260508203554 80 136 2.6 7.0 0.00 0.00 0.00 73 1008.0
20260508202541 79 129 2.6 7.0 0.00 0.00 0.00 73 1008.1
20260508201524 79 56 1.7 9.6 0.00 0.00 0.00 73 1008.2
20260508200545 80 81 2.6 9.6 0.00 0.00 0.00 71 1008.3
20260508193228 80 112 1.7 7.0 0.00 0.00 0.00 71 1008.7
20260508185841 77 90 2.6 7.0 0.00 0.00 0.00 74 1009.0
20260508184855 78 142 1.7 7.0 0.00 0.00 0.00 72 1009.2
20260508183909 78 128 1.7 7.0 0.00 0.00 0.00 72 1009.2
20260508182914 78 195 1.7 7.8 0.00 0.00 0.00 71 1009.5
20260508181846 78 161 2.6 7.8 0.00 0.00 0.00 71 1009.7
20260508180857 77 152 1.7 7.0 0.00 0.00 0.00 73 1009.8
20260508175848 77 73 1.7 7.0 0.00 0.00 0.00 73 1010.0
20260508174906 77 47 0.9 3.5 0.00 0.00 0.00 72 1010.1
20260508173836 77 62 0.9 4.3 0.00 0.00 0.00 71 1010.1
20260508171716 79 71 0.0 1.7 0.00 0.00 0.00 70 1010.2
20260508170719 79 250 0.0 1.7 0.00 0.00 0.00 71 1010.3
20260508165702 79 165 0.0 2.6 0.00 0.00 0.00 72 1010.4